This is the latest recevied weather packets stored in our database for station/object OH6HPS. If no packets are shown the sender has not sent any weather packets the latest 10 day(s).
| Time | Temp. | Humidity | Pressure | Rain* | Wind** | Luminosity | Snow |
|---|---|---|---|---|---|---|---|
| 1777707363 | 17.22° C | 48% | 1010.2 hPa | 0 mm | - | 543 W/m² | - |
| 1777706764 | 17.22° C | 49% | 1010.3 hPa | 0 mm | - | 528 W/m² | - |
| 1777706165 | 16.67° C | 51% | 1010.4 hPa | 0 mm | - | 507 W/m² | - |
| 1777705563 | 16.67° C | 52% | 1010.5 hPa | 0 mm | - | 494 W/m² | - |
| 1777704962 | 16.11° C | 53% | 1010.4 hPa | 0 mm | - | 477 W/m² | - |
| 1777704364 | 15.56° C | 55% | 1010.5 hPa | 0 mm | - | 454 W/m² | - |
| 1777703763 | 15° C | 56% | 1010.5 hPa | 0 mm | - | 438 W/m² | - |
| 1777703163 | 14.44° C | 59% | 1010.5 hPa | 0 mm | - | 417 W/m² | - |
| 1777702563 | 13.89° C | 62% | 1010.6 hPa | 0 mm | - | 394 W/m² | - |
| 1777701963 | 12.78° C | 65% | 1010.5 hPa | 0 mm | - | 373 W/m² | - |
| 1777701362 | 12.22° C | 69% | 1010.7 hPa | 0 mm | - | 336 W/m² | - |
| 1777700762 | 11.67° C | 70% | 1010.8 hPa | 0 mm | - | 292 W/m² | - |
| 1777700162 | 10.56° C | 73% | 1010.8 hPa | 0 mm | - | 246 W/m² | - |
| 1777699562 | 10.56° C | 75% | 1010.8 hPa | 0 mm | - | 197 W/m² | - |
| 1777698962 | 9.44° C | 77% | 1010.9 hPa | 0 mm | - | 220 W/m² | - |
| 1777698362 | 8.89° C | 79% | 1011 hPa | 0 mm | - | 223 W/m² | - |
| 1777697762 | 8.33° C | 81% | 1011 hPa | 0 mm | - | 176 W/m² | - |
| 1777697162 | 7.78° C | 83% | 1011 hPa | 0 mm | - | 190 W/m² | - |
| 1777696562 | 6.67° C | 85% | 1011 hPa | 0 mm | - | 183 W/m² | - |
| 1777695962 | 5.56° C | 88% | 1011.1 hPa | 0 mm | - | 158 W/m² | - |
| 1777695362 | 4.44° C | 91% | 1011.3 hPa | 0 mm | - | 120 W/m² | - |
| 1777694763 | 3.33° C | 95% | 1011.2 hPa | 0 mm | - | 93 W/m² | - |
| 1777694162 | 2.22° C | 94% | 1011.3 hPa | 0 mm | - | 95 W/m² | - |
| 1777693563 | 1.67° C | 93% | 1011.3 hPa | 0 mm | - | 78 W/m² | - |
| 1777692963 | 1.67° C | 93% | 1011.4 hPa | 0 mm | - | 23 W/m² | - |
* Rain latest hour (hover to see other rain measurements)
** Current wind speed in m/s (hover to see current wind gust speed)